ACA290 CYYZ-KMDW

Flight info

Callsign ACA290
Flight time 1h 22m
Altitude 36000
Route MIXUT7 GNTRY DCT ASHEN DCT BAGEL PANGG5
Aircraft B738/M-SDGIJ1LRWY/SB1

Departure

Time 2026-05-06 14:19
Airport Toronto Pearson International Airport (CYYZ)

Arrival

Time 2026-05-06 15:41
Airport Chicago Midway International Airport (KMDW)
Time Latitude Longitude Altitude Speed Heading
2026-05-06 14:07 43.68035 -79.61726 570 ft 0 kts 135°
2026-05-06 14:13 43.68046 -79.61742 570 ft 4 kts 127°
2026-05-06 14:14 43.68073 -79.61770 571 ft 6 kts 163°
2026-05-06 14:14 43.68070 -79.61780 571 ft 12 kts 201°
2026-05-06 14:14 43.67976 -79.61955 572 ft 36 kts 247°
2026-05-06 14:14 43.67980 -79.62243 572 ft 31 kts 313°
2026-05-06 14:15 43.68156 -79.62470 570 ft 38 kts 316°
2026-05-06 14:15 43.68347 -79.62725 565 ft 43 kts 316°
2026-05-06 14:15 43.68566 -79.63000 558 ft 47 kts 316°
2026-05-06 14:15 43.68835 -79.63353 552 ft 62 kts 317°
2026-05-06 14:16 43.69003 -79.63693 542 ft 27 kts 226°
2026-05-06 14:16 43.68860 -79.63901 541 ft 39 kts 224°
2026-05-06 14:16 43.68646 -79.64210 538 ft 54 kts 225°
2026-05-06 14:16 43.68379 -79.64622 536 ft 66 kts 223°
2026-05-06 14:17 43.68065 -79.65068 543 ft 74 kts 221°
2026-05-06 14:17 43.67721 -79.65568 560 ft 78 kts 222°
2026-05-06 14:17 43.67457 -79.65950 561 ft 43 kts 225°
2026-05-06 14:17 43.67379 -79.66240 561 ft 38 kts 312°
2026-05-06 14:18 43.67497 -79.66279 562 ft 0 kts 43°
2026-05-06 14:18 43.67559 -79.66190 563 ft 48 kts 47°
2026-05-06 14:18 43.67940 -79.65620 559 ft 122 kts 45°
2026-05-06 14:19 43.68636 -79.64660 659 ft 171 kts 45°
2026-05-06 14:19 43.69423 -79.63598 1420 ft 170 kts 45°
2026-05-06 14:19 43.70034 -79.62527 2154 ft 172 kts 69°
2026-05-06 14:19 43.70047 -79.60872 2573 ft 191 kts 109°
2026-05-06 14:20 43.69540 -79.59162 3060 ft 208 kts 109°
2026-05-06 14:20 43.69183 -79.57615 3407 ft 226 kts 104°
2026-05-06 14:20 43.68837 -79.55633 4002 ft 238 kts 103°
2026-05-06 14:20 43.68484 -79.53373 4586 ft 254 kts 102°
2026-05-06 14:21 43.68106 -79.50967 5222 ft 268 kts 103°
2026-05-06 14:21 43.67726 -79.48616 5883 ft 278 kts 104°
2026-05-06 14:21 43.67223 -79.46404 6544 ft 284 kts 115°
2026-05-06 14:21 43.66157 -79.44205 7353 ft 285 kts 138°
2026-05-06 14:22 43.64568 -79.42654 8172 ft 283 kts 158°
2026-05-06 14:22 43.62732 -79.41744 9019 ft 281 kts 171°
2026-05-06 14:22 43.60843 -79.41485 9835 ft 275 kts 191°
2026-05-06 14:22 43.59022 -79.42139 10568 ft 273 kts 208°
2026-05-06 14:23 43.57282 -79.43334 11103 ft 285 kts 212°
2026-05-06 14:23 43.55511 -79.44657 11622 ft 297 kts 214°
2026-05-06 14:23 43.53778 -79.46275 12066 ft 310 kts 219°
2026-05-06 14:23 43.52042 -79.48112 12510 ft 323 kts 221°
2026-05-06 14:24 43.50244 -79.50083 12956 ft 336 kts 222°
2026-05-06 14:24 43.48549 -79.52329 13369 ft 348 kts 229°
2026-05-06 14:24 43.46939 -79.54864 13880 ft 358 kts 231°
2026-05-06 14:24 43.45324 -79.57545 14485 ft 365 kts 232°
2026-05-06 14:25 43.43711 -79.60248 15289 ft 366 kts 232°
2026-05-06 14:25 43.42108 -79.62909 16023 ft 359 kts 232°
2026-05-06 14:25 43.40587 -79.65414 16365 ft 371 kts 232°
2026-05-06 14:25 43.39062 -79.67910 16914 ft 364 kts 232°
2026-05-06 14:26 43.37582 -79.70321 17224 ft 375 kts 232°
2026-05-06 14:26 43.36112 -79.72705 17785 ft 378 kts 232°
2026-05-06 14:26 43.34642 -79.75085 18303 ft 382 kts 232°
2026-05-06 14:26 43.33180 -79.77449 18913 ft 384 kts 232°
2026-05-06 14:27 43.31679 -79.79871 19457 ft 387 kts 232°
2026-05-06 14:27 43.30191 -79.82275 19986 ft 390 kts 232°
2026-05-06 14:27 43.28648 -79.84763 20605 ft 392 kts 232°
2026-05-06 14:27 43.27254 -79.87049 21200 ft 391 kts 234°
2026-05-06 14:28 43.25856 -79.89648 21667 ft 393 kts 239°
2026-05-06 14:28 43.24718 -79.92443 22167 ft 393 kts 246°
2026-05-06 14:28 43.23886 -79.95415 22737 ft 393 kts 253°
2026-05-06 14:28 43.23258 -79.98504 23239 ft 395 kts 256°
2026-05-06 14:29 43.22756 -80.01526 23722 ft 396 kts 258°
2026-05-06 14:29 43.22288 -80.04702 24214 ft 399 kts 259°
2026-05-06 14:29 43.21839 -80.07920 24628 ft 402 kts 259°
2026-05-06 14:29 43.21391 -80.11172 25095 ft 405 kts 259°
2026-05-06 14:30 43.20944 -80.14397 25587 ft 406 kts 259°
2026-05-06 14:30 43.20487 -80.17651 25987 ft 410 kts 259°
2026-05-06 14:30 43.20007 -80.20928 26407 ft 412 kts 258°
2026-05-06 14:30 43.19389 -80.24270 26849 ft 415 kts 254°
2026-05-06 14:31 43.18530 -80.27580 27395 ft 415 kts 249°
2026-05-06 14:31 43.17511 -80.30785 28067 ft 413 kts 247°
2026-05-06 14:31 43.16427 -80.33878 28757 ft 409 kts 246°
2026-05-06 14:31 43.15305 -80.36942 29447 ft 405 kts 246°
2026-05-06 14:32 43.14187 -80.39946 30157 ft 400 kts 245°
2026-05-06 14:32 43.13075 -80.42925 30763 ft 396 kts 246°
2026-05-06 14:32 43.11966 -80.45903 31241 ft 395 kts 246°
2026-05-06 14:32 43.10887 -80.48819 31627 ft 395 kts 246°
2026-05-06 14:33 43.09798 -80.51771 32018 ft 395 kts 246°
2026-05-06 14:33 43.08720 -80.54704 32419 ft 394 kts 245°
2026-05-06 14:33 43.07641 -80.57648 32890 ft 391 kts 246°
2026-05-06 14:33 43.06547 -80.60631 33388 ft 388 kts 245°
2026-05-06 14:34 43.05478 -80.63545 33817 ft 385 kts 246°
2026-05-06 14:34 43.04414 -80.66448 34159 ft 385 kts 245°
2026-05-06 14:34 43.03331 -80.69399 34493 ft 384 kts 245°
2026-05-06 14:34 43.02260 -80.72319 34822 ft 382 kts 245°
2026-05-06 14:35 43.01203 -80.75198 35077 ft 382 kts 245°
2026-05-06 14:35 43.00139 -80.78094 35306 ft 382 kts 245°
2026-05-06 14:35 42.99057 -80.81034 35510 ft 383 kts 245°
2026-05-06 14:35 42.97989 -80.83935 35665 ft 385 kts 245°
2026-05-06 14:36 42.96910 -80.86863 35796 ft 387 kts 245°
2026-05-06 14:36 42.95816 -80.89827 35847 ft 388 kts 245°
2026-05-06 14:36 42.93662 -80.95647 35862 ft 381 kts 245°
2026-05-06 14:37 42.91509 -81.01463 35862 ft 385 kts 245°
2026-05-06 14:37 42.89324 -81.07354 35856 ft 383 kts 246°
2026-05-06 14:38 42.87173 -81.13142 35872 ft 382 kts 246°
2026-05-06 14:38 42.85000 -81.18977 35871 ft 382 kts 246°
2026-05-06 14:39 42.82836 -81.24773 35628 ft 382 kts 246°
2026-05-06 14:39 42.81735 -81.27720 35813 ft 381 kts 246°
2026-05-06 14:39 42.80644 -81.30635 35976 ft 387 kts 246°
2026-05-06 14:40 42.78425 -81.36541 35776 ft 375 kts 245°
2026-05-06 14:40 42.77296 -81.39410 36006 ft 381 kts 244°
2026-05-06 14:40 42.75989 -81.42220 35747 ft 381 kts 238°
2026-05-06 14:41 42.74435 -81.44922 35880 ft 385 kts 236°
2026-05-06 14:41 42.72772 -81.47494 35895 ft 390 kts 233°
2026-05-06 14:41 42.69318 -81.52506 35895 ft 387 kts 232°
2026-05-06 14:42 42.65842 -81.57474 35899 ft 387 kts 233°
2026-05-06 14:42 42.62319 -81.62543 35905 ft 388 kts 233°
2026-05-06 14:43 42.58808 -81.67609 35896 ft 387 kts 232°
2026-05-06 14:43 42.55268 -81.72729 35900 ft 388 kts 232°
2026-05-06 14:44 42.51936 -81.77904 35897 ft 382 kts 238°
2026-05-06 14:45 42.48201 -81.86665 35913 ft 377 kts 248°
2026-05-06 14:45 42.46122 -81.92740 35915 ft 374 kts 248°
2026-05-06 14:46 42.44094 -81.98795 35915 ft 375 kts 248°
2026-05-06 14:46 42.42046 -82.04830 35917 ft 374 kts 248°
2026-05-06 14:47 42.40000 -82.10792 35913 ft 375 kts 248°
2026-05-06 14:47 42.37984 -82.16626 35926 ft 373 kts 248°
2026-05-06 14:48 42.35920 -82.22575 35932 ft 374 kts 248°
2026-05-06 14:48 42.33756 -82.28796 35910 ft 371 kts 248°
2026-05-06 14:49 42.31656 -82.34821 35912 ft 373 kts 248°
2026-05-06 14:49 42.29554 -82.40835 35940 ft 374 kts 248°
2026-05-06 14:50 42.27525 -82.46625 35924 ft 372 kts 248°
2026-05-06 14:50 42.25567 -82.52203 35910 ft 372 kts 248°
2026-05-06 14:51 42.23609 -82.57774 35944 ft 373 kts 248°
2026-05-06 14:51 42.21578 -82.63533 35948 ft 370 kts 248°
2026-05-06 14:52 42.19534 -82.69322 35928 ft 374 kts 247°
2026-05-06 14:52 42.17473 -82.75143 35949 ft 370 kts 248°
2026-05-06 14:53 42.15397 -82.80996 35939 ft 372 kts 248°
2026-05-06 14:53 42.13316 -82.86853 35938 ft 371 kts 248°
2026-05-06 14:54 42.11228 -82.92716 35946 ft 370 kts 248°
2026-05-06 14:54 42.09058 -82.98801 35945 ft 371 kts 247°
2026-05-06 14:55 42.06934 -83.04739 35937 ft 369 kts 248°
2026-05-06 14:55 42.04855 -83.10542 35936 ft 370 kts 248°
2026-05-06 14:56 42.02762 -83.16370 35938 ft 368 kts 248°
2026-05-06 14:56 42.00637 -83.22272 35942 ft 368 kts 248°
2026-05-06 14:57 41.98448 -83.28346 35932 ft 370 kts 248°
2026-05-06 14:57 41.96248 -83.34434 35981 ft 370 kts 248°
2026-05-06 14:58 41.94029 -83.40558 35937 ft 367 kts 248°
2026-05-06 14:58 41.91819 -83.46645 35963 ft 368 kts 248°
2026-05-06 14:59 41.89601 -83.52746 35944 ft 365 kts 248°
2026-05-06 14:59 41.87391 -83.58811 35953 ft 366 kts 248°
2026-05-06 15:00 41.85180 -83.64867 35941 ft 365 kts 248°
2026-05-06 15:00 41.82968 -83.70913 35982 ft 368 kts 248°
2026-05-06 15:01 41.80743 -83.76971 35958 ft 365 kts 248°
2026-05-06 15:01 41.78519 -83.83023 35965 ft 369 kts 248°
2026-05-06 15:02 41.76286 -83.89084 35960 ft 365 kts 248°
2026-05-06 15:02 41.74046 -83.95153 35959 ft 365 kts 248°
2026-05-06 15:03 41.71812 -84.01188 35944 ft 365 kts 248°
2026-05-06 15:03 41.69574 -84.07227 35969 ft 365 kts 247°
2026-05-06 15:04 41.67333 -84.13258 35977 ft 365 kts 248°
2026-05-06 15:04 41.65096 -84.19264 35958 ft 359 kts 248°
2026-05-06 15:05 41.62882 -84.25194 35962 ft 361 kts 248°
2026-05-06 15:05 41.60640 -84.31194 35952 ft 361 kts 248°
2026-05-06 15:06 41.58402 -84.37177 35966 ft 361 kts 248°
2026-05-06 15:06 41.56179 -84.43086 35974 ft 359 kts 248°
2026-05-06 15:07 41.53947 -84.49024 35962 ft 360 kts 248°
2026-05-06 15:07 41.51720 -84.54929 35945 ft 358 kts 248°
2026-05-06 15:08 41.49523 -84.60845 36028 ft 360 kts 250°
2026-05-06 15:08 41.48270 -84.67082 35954 ft 354 kts 265°
2026-05-06 15:09 41.48298 -84.73626 35966 ft 359 kts 270°
2026-05-06 15:09 41.48601 -84.80151 35921 ft 355 kts 271°
2026-05-06 15:10 41.48903 -84.86732 35949 ft 359 kts 270°
2026-05-06 15:10 41.49178 -84.93289 35955 ft 357 kts 271°
2026-05-06 15:11 41.49425 -84.99590 35608 ft 356 kts 270°
2026-05-06 15:11 41.49538 -85.02548 35435 ft 354 kts 270°
2026-05-06 15:11 41.49644 -85.05345 35277 ft 353 kts 270°
2026-05-06 15:11 41.49762 -85.08535 35046 ft 352 kts 270°
2026-05-06 15:12 41.49881 -85.11752 34818 ft 352 kts 270°
2026-05-06 15:12 41.49991 -85.14748 34593 ft 352 kts 270°
2026-05-06 15:12 41.50109 -85.17986 34376 ft 354 kts 270°
2026-05-06 15:12 41.50225 -85.21187 34150 ft 352 kts 270°
2026-05-06 15:13 41.50340 -85.24397 33923 ft 352 kts 270°
2026-05-06 15:13 41.50454 -85.27586 33697 ft 352 kts 270°
2026-05-06 15:13 41.50568 -85.30786 33473 ft 351 kts 270°
2026-05-06 15:13 41.50681 -85.33993 33255 ft 353 kts 270°
2026-05-06 15:14 41.50791 -85.37204 33033 ft 356 kts 270°
2026-05-06 15:14 41.50899 -85.40376 32750 ft 352 kts 270°
2026-05-06 15:14 41.51005 -85.43496 32069 ft 355 kts 270°
2026-05-06 15:14 41.51114 -85.46748 30846 ft 369 kts 269°
2026-05-06 15:15 41.51227 -85.50111 30279 ft 366 kts 269°
2026-05-06 15:15 41.51344 -85.53478 29504 ft 364 kts 269°
2026-05-06 15:15 41.51459 -85.56845 28768 ft 362 kts 269°
2026-05-06 15:15 41.51570 -85.60165 27984 ft 362 kts 270°
2026-05-06 15:16 41.51674 -85.63495 27173 ft 362 kts 269°
2026-05-06 15:16 41.51759 -85.66860 26411 ft 361 kts 268°
2026-05-06 15:16 41.51830 -85.70150 25479 ft 366 kts 268°
2026-05-06 15:16 41.51896 -85.73538 24318 ft 374 kts 268°
2026-05-06 15:17 41.51960 -85.76967 23294 ft 378 kts 269°
2026-05-06 15:17 41.52023 -85.80204 22880 ft 368 kts 268°
2026-05-06 15:17 41.52083 -85.83215 21981 ft 373 kts 269°
2026-05-06 15:17 41.52143 -85.86284 21397 ft 368 kts 268°
2026-05-06 15:18 41.52203 -85.89271 20977 ft 361 kts 268°
2026-05-06 15:18 41.52258 -85.92261 20183 ft 364 kts 268°
2026-05-06 15:18 41.52311 -85.95348 19492 ft 361 kts 268°
2026-05-06 15:18 41.52361 -85.98322 19112 ft 352 kts 269°
2026-05-06 15:19 41.52415 -86.01422 18138 ft 360 kts 268°
2026-05-06 15:19 41.52468 -86.04602 17610 ft 353 kts 268°
2026-05-06 15:19 41.52519 -86.07606 17108 ft 347 kts 269°
2026-05-06 15:19 41.52540 -86.10571 16142 ft 354 kts 268°
2026-05-06 15:20 41.52530 -86.13530 15792 ft 343 kts 268°
2026-05-06 15:20 41.52509 -86.16463 15163 ft 344 kts 267°
2026-05-06 15:20 41.52482 -86.19453 14307 ft 347 kts 267°
2026-05-06 15:20 41.52458 -86.22334 13995 ft 336 kts 268°
2026-05-06 15:21 41.52438 -86.25213 13396 ft 339 kts 268°
2026-05-06 15:21 41.52417 -86.28320 12454 ft 344 kts 269°
2026-05-06 15:21 41.52399 -86.31225 12147 ft 332 kts 268°
2026-05-06 15:21 41.52383 -86.34150 11628 ft 331 kts 269°
2026-05-06 15:22 41.52365 -86.37131 10959 ft 329 kts 269°
2026-05-06 15:22 41.52349 -86.39895 10919 ft 311 kts 269°
2026-05-06 15:22 41.52334 -86.42492 10875 ft 294 kts 269°
2026-05-06 15:22 41.52318 -86.44958 10822 ft 279 kts 269°
2026-05-06 15:23 41.52302 -86.47292 10753 ft 268 kts 269°
2026-05-06 15:23 41.52284 -86.49638 10693 ft 279 kts 269°
2026-05-06 15:23 41.52266 -86.52036 10594 ft 273 kts 269°
2026-05-06 15:23 41.52250 -86.54321 10444 ft 263 kts 269°
2026-05-06 15:24 41.52233 -86.56531 10231 ft 256 kts 270°
2026-05-06 15:24 41.52219 -86.58689 10070 ft 248 kts 270°
2026-05-06 15:24 41.52205 -86.60834 9865 ft 251 kts 270°
2026-05-06 15:24 41.52187 -86.62959 9628 ft 248 kts 269°
2026-05-06 15:25 41.52166 -86.65068 9398 ft 248 kts 269°
2026-05-06 15:25 41.52145 -86.67142 9168 ft 247 kts 269°
2026-05-06 15:25 41.52129 -86.69150 8946 ft 249 kts 269°
2026-05-06 15:25 41.52114 -86.71449 8691 ft 248 kts 270°
2026-05-06 15:26 41.52099 -86.73447 8468 ft 246 kts 270°
2026-05-06 15:26 41.52081 -86.75536 8241 ft 248 kts 270°
2026-05-06 15:26 41.52061 -86.77633 8011 ft 248 kts 270°
2026-05-06 15:26 41.52039 -86.79717 7779 ft 247 kts 270°
2026-05-06 15:27 41.52019 -86.81809 7551 ft 250 kts 270°
2026-05-06 15:27 41.51998 -86.83951 7314 ft 248 kts 270°
2026-05-06 15:27 41.51974 -86.86091 7079 ft 248 kts 270°
2026-05-06 15:27 41.51946 -86.88341 6830 ft 247 kts 270°
2026-05-06 15:28 41.51923 -86.90517 6594 ft 249 kts 270°
2026-05-06 15:28 41.51899 -86.92675 6354 ft 247 kts 270°
2026-05-06 15:28 41.51872 -86.94907 6107 ft 246 kts 270°
2026-05-06 15:28 41.51847 -86.96998 5985 ft 244 kts 270°
2026-05-06 15:29 41.51825 -86.98930 5981 ft 246 kts 270°
2026-05-06 15:29 41.51801 -87.01006 5981 ft 247 kts 270°
2026-05-06 15:29 41.51778 -87.03089 5975 ft 246 kts 270°
2026-05-06 15:29 41.51754 -87.05144 5970 ft 246 kts 270°
2026-05-06 15:30 41.51730 -87.07224 5974 ft 246 kts 270°
2026-05-06 15:30 41.51704 -87.09280 5977 ft 247 kts 270°
2026-05-06 15:30 41.51680 -87.11250 5978 ft 246 kts 270°
2026-05-06 15:30 41.51660 -87.13305 5978 ft 248 kts 270°
2026-05-06 15:31 41.51670 -87.15359 5981 ft 247 kts 275°
2026-05-06 15:31 41.51944 -87.17344 5987 ft 245 kts 288°
2026-05-06 15:31 41.52472 -87.19210 5980 ft 246 kts 293°
2026-05-06 15:32 41.53658 -87.22907 5983 ft 245 kts 292°
2026-05-06 15:32 41.54236 -87.24783 5987 ft 246 kts 292°
2026-05-06 15:32 41.54796 -87.26653 5980 ft 246 kts 291°
2026-05-06 15:32 41.55357 -87.28555 5985 ft 245 kts 291°
2026-05-06 15:33 41.55915 -87.30454 5989 ft 247 kts 291°
2026-05-06 15:33 41.56475 -87.32355 5988 ft 247 kts 291°
2026-05-06 15:33 41.57033 -87.34252 5987 ft 246 kts 291°
2026-05-06 15:33 41.57591 -87.36151 5989 ft 247 kts 291°
2026-05-06 15:34 41.58137 -87.38013 5990 ft 248 kts 291°
2026-05-06 15:34 41.58688 -87.39892 5990 ft 248 kts 291°
2026-05-06 15:34 41.59243 -87.41795 5991 ft 248 kts 291°
2026-05-06 15:34 41.59784 -87.43657 5991 ft 247 kts 291°
2026-05-06 15:35 41.60337 -87.45556 5955 ft 245 kts 291°
2026-05-06 15:35 41.60866 -87.47372 5820 ft 238 kts 291°
2026-05-06 15:35 41.61390 -87.49167 5595 ft 235 kts 292°
2026-05-06 15:35 41.61915 -87.50961 5354 ft 233 kts 292°
2026-05-06 15:36 41.62487 -87.52661 5083 ft 232 kts 300°
2026-05-06 15:36 41.63306 -87.54138 4762 ft 234 kts 312°
2026-05-06 15:36 41.64308 -87.55490 4513 ft 232 kts 316°
2026-05-06 15:36 41.65231 -87.56679 4417 ft 225 kts 315°
2026-05-06 15:37 41.66192 -87.57949 4285 ft 219 kts 315°
2026-05-06 15:37 41.67120 -87.59212 4181 ft 212 kts 314°
2026-05-06 15:37 41.68024 -87.60468 4028 ft 207 kts 314°
2026-05-06 15:37 41.68914 -87.61713 3783 ft 208 kts 314°
2026-05-06 15:38 41.69814 -87.62974 3558 ft 207 kts 314°
2026-05-06 15:38 41.70693 -87.64205 3427 ft 207 kts 314°
2026-05-06 15:38 41.71530 -87.65341 3318 ft 209 kts 316°
2026-05-06 15:38 41.72493 -87.66522 3138 ft 207 kts 317°
2026-05-06 15:39 41.73405 -87.67660 2814 ft 197 kts 316°
2026-05-06 15:39 41.74293 -87.68836 1979 ft 207 kts 314°
2026-05-06 15:39 41.75144 -87.70014 1585 ft 192 kts 313°
2026-05-06 15:39 41.75908 -87.71090 1498 ft 168 kts 313°
2026-05-06 15:40 41.76572 -87.72082 1325 ft 157 kts 310°
2026-05-06 15:40 41.77208 -87.73022 1018 ft 152 kts 314°
2026-05-06 15:40 41.77867 -87.73918 766 ft 152 kts 315°
2026-05-06 15:40 41.78534 -87.74800 613 ft 143 kts 314°
2026-05-06 15:41 41.79008 -87.75487 612 ft 59 kts 311°
2026-05-06 15:41 41.79069 -87.75581 612 ft 10 kts 311°
2026-05-06 15:41 41.79114 -87.75665 612 ft 13 kts 291°
2026-05-06 15:41 41.79120 -87.75693 612 ft 0 kts 277°
2026-05-06 15:42 41.79120 -87.75706 612 ft 2 kts 272°
2026-05-06 15:42 41.79120 -87.75718 612 ft 0 kts 269°
2026-05-06 15:43 41.79120 -87.75729 612 ft 2 kts 269°
2026-05-06 15:44 41.79120 -87.75777 612 ft 8 kts 272°
2026-05-06 15:44 41.79136 -87.75874 612 ft 14 kts 295°
2026-05-06 15:44 41.79207 -87.75901 612 ft 18 kts 90°
2026-05-06 15:44 41.79189 -87.75764 612 ft 17 kts 126°
2026-05-06 15:45 41.79103 -87.75639 612 ft 23 kts 132°
2026-05-06 15:45 41.78992 -87.75480 612 ft 28 kts 133°
2026-05-06 15:45 41.78864 -87.75295 612 ft 30 kts 133°
2026-05-06 15:45 41.78737 -87.75111 612 ft 29 kts 133°
2026-05-06 15:46 41.78616 -87.74942 612 ft 21 kts 134°
2026-05-06 15:46 41.78585 -87.74890 612 ft 0 kts 123°
2026-05-06 15:46 41.78576 -87.74869 612 ft 6 kts 121°
2026-05-06 15:47 41.78565 -87.74793 612 ft 0 kts 72°
2026-05-06 15:47 41.78568 -87.74785 612 ft 4 kts 54°
2026-05-06 15:47 41.78615 -87.74755 612 ft 12 kts 10°
2026-05-06 15:47 41.78700 -87.74684 612 ft 20 kts 35°
2026-05-06 15:48 41.78828 -87.74563 612 ft 28 kts 37°
2026-05-06 15:48 41.78981 -87.74399 612 ft 35 kts 40°
2026-05-06 15:48 41.79014 -87.74361 612 ft 0 kts 42°
2026-05-06 15:48 41.79015 -87.74356 612 ft 3 kts 72°
2026-05-06 15:49 41.79009 -87.74297 611 ft 11 kts 124°
2026-05-06 15:49 41.78978 -87.74242 611 ft 0 kts 129°
2026-05-06 15:49 41.78977 -87.74241 611 ft 0 kts 129°